Orbital Elements at Epoch 2459000.5 (2020-May-31.0) TDB
Reference: JPL 15 (heliocentric ecliptic J2000)
Element | Value | Uncertainty (1-sigma) | Units |
e | .1075779188596255 | 4.5818e-08 | |
a | 2.362589248319826 | 1.7875e-08 | au |
q | 2.108426813865452 | 1.1693e-07 | au |
i | 7.938173322451987 | 4.6668e-06 | deg |
node | 75.77479849361592 | 3.7945e-05 | deg |
peri | 208.0957481413982 | 4.5734e-05 | deg |
M | 293.5953831165672 | 2.5932e-05 | deg |
tp | 2459245.167641957528 (2021-Jan-30.66764196) | 9.5862e-05 | TDB |
period | 1326.41908407253 3.63 | 1.5053e-05 4.121e-08 | d yr |
n | .2714074339873678 | 3.0802e-09 | deg/d |
Q | 2.6167516827742 | 1.9798e-08 | au |
|
| | Orbit Determination Parameters
Additional Information
|